COSMOS 1275 DEB, 12655

Orbit data source: Space-Track

COSMOS 1275 DEB, 12655 is space debris in LEO originally from a launch on Thu, 04 Jun 1981 UTC launched from the Plesetsk Missile And Space Complex (PKMTR). Debris objects in space refer to the collection of defunct objects orbiting the Earth. Examples of debris include non-operational satellites, rocket bodies, and fragments generated from explosions, collisions, or faulty payload assembly.

Loading next visibility...
Identifier
12655, 1981-053K
Orbit
LEO
Country
Flag of CISCIS
Related business
Manufacturer
Unknown
Mission
Spacecraft
Bus & Motor
Unknown
Mass
Unknown
Launch date (UTC)
1981-06-04 (45 years ago)
Launch vehicle
Unknown
Launch site
Plesetsk Missile And Space Complex (PKMTR)
Object type
Payload
Rocket body
Debris
Shape & HBR
Unknown shape, 0.2 m
Radar Cross Section
Medium (>0.1 m² and <1 m²)

Expand to show TLE details & history
Last TLE update: 8 hours ago

TLE from 8 hours ago
0 COSMOS 1275 DEB
1 12655U 81053K   26119.45373087  .00000114  00000-0  99864-4 0  9998
2 12655  82.9566 267.9089 0032810 202.3102 213.1240 13.76820719246696
Epoch: 2026-04-29T10:53Z
TLE epoch observation values (Epoch: 2026-04-29T10:53:22.347Z)
Latitude
54.70839°
Longitude
-102.8485°
Altitude
1,004.453 km
Speed
7.345 km/s
True Right ascension
18h 31m 38s
True Declination
54° 33' 05"
Sunlit
Object was in daylight at epoch
Visualization orbit readout
Latitude
Unknown
Longitude
Unknown
Altitude
Unknown
Speed
Unknown
Apparent Right ascension
Unknown
Apparent Declination
Unknown
Sunlit
N/A
Visualization observer readout
Local Sidereal Time
02:26:35
Azimuth
Unknown
Elevation
Unknown
Doppler factor
Unknown
Orbital elements
Apogee altitude
996.448 km
Perigee altitude
948.214 km
Semi-major axis
7,350.468 km
Eccentricity
0.00328
Inclination
82.9566°
RAAN
267.9089°
Arg. of periapsis
202.3102°
True anomaly
212.91925°
Mean anomaly
213.124°
Eccentric anomaly
213.02156°
Mean motion
3.44406 °/min
Orbital period
104.53 mins
BSTAR
0.000099864
Loading maneuver chart data...
Computing Atmospheric mass density...
Loading historical data...
Loading historical data...
Loading historical data...
Loading historical data...
Loading historical data...
Loading historical data...
Loading historical data...

Documentation

Showing up to 5 results
|